Traverse City, MI

12:15 AM EDT on July 26, 2017 (GMT -0400)
Cherry Capital

Weather History for KTVC - January, 2014

Change the Weather History Date:

Friday, January 24, 2014

  Actual Average Record
Temperature  
Mean Temperature 15 °F 21 °F  
Max Temperature 24 °F 28 °F 54 °F (1950)
Min Temperature 6 °F 14 °F -10 °F (1963)
Degree Days  
Heating Degree Days 50 44  
Month to date heating degree days 1119 1041  
Since 1 July heating degree days 3940 3849  
Moisture  
Dew Point 10 °F    
Average Humidity 77    
Maximum Humidity 88    
Minimum Humidity 66    
Precipitation  
Precipitation 0.12 in 0.08 in 1.82 in (1938)
Month to date precipitation 0.87 2.27  
Year to date precipitation 0.87 2.27  
Snow  
Snow 0.00 in - - ()
Snow Depth 18.00 in    
Sea Level Pressure  
Sea Level Pressure 29.78 in    
Wind  
Wind Speed 10 mph (SW)    
Max Wind Speed 22 mph    
Max Gust Speed 33 mph    
Visibility 2 miles    
Events Fog , Snow    
T = Trace of Precipitation, MM = Missing Value Source: NWS Daily Summary

Daily Weather History Graph

Daily Weather History Graph

Search for Another Location

Airport or City:

Trip Planner

Search our weather history database for the weather conditions in past years. The results will help you decide how hot, cold, wet, or windy it might be!

Date:

Astronomy

Jan. 24, 2014 Rise Set
Actual Time 8:09 AM EST 5:39 PM EST
Civil Twilight 7:37 AM EST 6:11 PM EST
Nautical Twilight 7:02 AM EST 6:47 PM EST
Astronomical Twilight 6:27 AM EST 7:21 PM EST
Moon 1:32 AM EST (1/24) 12:00 PM EST (1/24)
Length of Visible Light 10h 33m
Length of Day
9h 30m
Last Quarter, 45% of the Moon is Illuminated
Jan 24
Last Quarter
Jan 30
New
Feb 6
First Quarter
Feb 14
Full
Feb 22
Last Quarter

Hourly Weather History & Observations

Time (EST) Temp. Windchill Dew Point Humidity Pressure Visibility Wind Dir Wind Speed Gust Speed Precip Events Conditions
12:09 AM 8.1 °F 1.4 °F 3.0 °F 80% 30.31 in 2.0 mi Variable 3.5 mph - 0.00 in Snow Light Snow
12:29 AM 7.0 °F -1.7 °F 1.9 °F 80% 30.29 in 3.0 mi South 4.6 mph - 0.00 in   Haze
12:49 AM 6.8 °F -0.1 °F 1.4 °F 79% 30.28 in 2.0 mi South 3.5 mph - 0.00 in Snow Light Snow
12:53 AM 7.0 °F 0.1 °F 1.9 °F 80% 30.32 in 1.8 mi South 3.5 mph - 0.00 in Snow Light Snow
1:31 AM 8.1 °F -0.5 °F 3.9 °F 83% 30.25 in 2.0 mi South 4.6 mph - 0.00 in Snow Light Snow
1:51 AM 8.6 °F -4.7 °F 3.2 °F 79% 30.24 in 5.0 mi SW 9.2 mph - 0.00 in Snow Light Snow
1:53 AM 9.0 °F -4.2 °F 3.0 °F 77% 30.28 in 5.0 mi WSW 9.2 mph 17.3 mph 0.00 in Snow Light Snow
1:58 AM 10.0 °F -2.9 °F 3.0 °F 73% 30.24 in 2.5 mi WSW 9.2 mph 17.3 mph 0.00 in Snow Light Snow
2:12 AM 10.0 °F -2.9 °F 1.9 °F 70% 30.23 in 5.0 mi SW 9.2 mph - 0.00 in Snow Light Snow
2:53 AM 9.0 °F -3.2 °F 1.9 °F 73% 30.26 in 4.0 mi SW 8.1 mph - 0.00 in Snow Light Snow
3:28 AM 9.0 °F -4.2 °F 3.0 °F 77% 30.20 in 1.8 mi SW 9.2 mph - 0.00 in Snow Light Snow
3:43 AM 9.0 °F -5.9 °F 1.9 °F 73% 30.19 in 2.5 mi WSW 11.5 mph 23.0 mph 0.00 in Snow Light Snow
3:53 AM 9.0 °F -5.9 °F 1.9 °F 73% 30.23 in 4.0 mi WSW 11.5 mph 18.4 mph 0.00 in Snow Light Snow
4:53 AM 9.0 °F -5.1 °F 1.9 °F 73% 30.19 in 7.0 mi SW 10.4 mph 17.3 mph 0.00 in   Overcast
5:53 AM 9.0 °F -4.2 °F 1.9 °F 73% 30.13 in 7.0 mi SSW 9.2 mph - N/A   Overcast
6:53 AM 10.0 °F -3.7 °F 3.0 °F 73% 30.08 in 5.0 mi SSW 10.4 mph 24.2 mph 0.00 in Snow Light Snow
7:53 AM 10.0 °F -7.1 °F 1.9 °F 70% 30.02 in 5.0 mi SSW 16.1 mph 23.0 mph 0.00 in Snow Light Snow
8:53 AM 10.9 °F -4.1 °F 3.9 °F 73% 29.95 in 5.0 mi SSW 12.7 mph 25.3 mph 0.00 in Snow Light Snow
9:53 AM 12.9 °F -0.9 °F 5.0 °F 71% 29.86 in 3.0 mi SSW 11.5 mph 26.5 mph 0.00 in Snow Light Snow
10:12 AM 12.9 °F 0.7 °F 6.1 °F 74% 29.81 in 1.0 mi SSW 9.2 mph 21.9 mph 0.00 in Snow Light Snow
10:53 AM 15.1 °F 3.3 °F 8.1 °F 74% 29.77 in 2.0 mi South 9.2 mph 27.6 mph 0.00 in Snow Light Snow
11:27 AM 16.0 °F 0.6 °F 10.0 °F 77% 29.72 in 1.0 mi SW 16.1 mph 33.4 mph 0.00 in Snow Light Snow
11:40 AM 17.1 °F 3.6 °F 10.9 °F 77% 29.70 in 1.0 mi SW 12.7 mph 25.3 mph 0.00 in Snow Light Snow
11:53 AM 17.1 °F 3.0 °F 12.0 °F 81% 29.73 in 0.5 mi SW 13.8 mph 32.2 mph 0.00 in Snow Snow
12:06 PM 17.1 °F 2.0 °F 12.0 °F 81% 29.68 in 0.5 mi SW 16.1 mph 28.8 mph 0.00 in Snow Snow
12:53 PM 19.0 °F 4.5 °F 14.0 °F 81% 29.68 in 0.5 mi SW 16.1 mph 26.5 mph 0.00 in Snow Snow
1:05 PM 19.0 °F 4.5 °F 12.9 °F 77% 29.63 in 0.5 mi WSW 16.1 mph 29.9 mph 0.00 in Snow Snow
1:26 PM 19.0 °F 4.5 °F 14.0 °F 81% 29.61 in 0.5 mi WSW 16.1 mph 27.6 mph 0.00 in Snow Snow
1:53 PM 18.0 °F 3.6 °F 14.0 °F 84% 29.63 in 0.8 mi WSW 15.0 mph 21.9 mph 0.00 in Snow Light Snow
2:53 PM 18.0 °F 6.1 °F 12.9 °F 81% 29.58 in 0.8 mi SW 10.4 mph 23.0 mph 0.00 in Snow Light Snow
3:44 PM 18.0 °F 6.1 °F 12.9 °F 81% 29.52 in 1.0 mi SW 10.4 mph 17.3 mph 0.00 in Snow Light Snow
3:53 PM 18.0 °F 6.1 °F 12.9 °F 81% 29.56 in 1.0 mi SW 10.4 mph 18.4 mph 0.00 in Snow Light Snow
4:05 PM 18.0 °F 4.8 °F 12.9 °F 81% 29.52 in 0.8 mi SW 12.7 mph 19.6 mph 0.00 in Snow Light Snow
4:53 PM 18.0 °F 6.1 °F 12.9 °F 81% 29.53 in 0.8 mi SW 10.4 mph 20.7 mph 0.00 in Snow Light Snow
5:53 PM 19.0 °F 8.2 °F 14.0 °F 81% 29.50 in 0.8 mi SSW 9.2 mph - 0.01 in Snow Light Snow
6:53 PM 19.0 °F 7.5 °F 15.1 °F 85% 29.45 in 0.8 mi SW 10.4 mph 18.4 mph 0.00 in Snow Light Snow
7:53 PM 19.9 °F 10.1 °F 16.0 °F 85% 29.45 in 0.8 mi SSW 8.1 mph - 0.01 in Snow Light Snow
8:18 PM 19.9 °F 9.3 °F 17.1 °F 89% 29.40 in 0.8 mi SW 9.2 mph - 0.01 in Snow Light Snow
8:53 PM 21.0 °F 10.6 °F 17.1 °F 85% 29.40 in 0.8 mi SW 9.2 mph - 0.02 in Snow Light Snow
9:05 PM 21.0 °F 12.4 °F 18.0 °F 88% 29.35 in 0.8 mi Variable 6.9 mph - 0.00 in Snow Light Snow
9:13 PM 21.0 °F 12.4 °F 18.0 °F 88% 29.35 in 1.0 mi SSW 6.9 mph - 0.00 in Snow Light Snow
9:44 PM 21.9 °F 13.4 °F 19.0 °F 89% 29.33 in 0.8 mi Variable 6.9 mph - 0.01 in Snow Light Snow
9:53 PM 23.0 °F 14.7 °F 19.0 °F 85% 29.35 in 0.8 mi SW 6.9 mph - 0.01 in Snow Light Snow
10:02 PM 23.0 °F 15.8 °F 19.9 °F 88% 29.31 in 0.5 mi SSW 5.8 mph - 0.01 in Fog , Snow Snow
10:53 PM 24.1 °F 18.2 °F 21.0 °F 88% 29.31 in 0.8 mi Variable 4.6 mph - 0.04 in Snow Light Snow
11:15 PM 24.1 °F 18.2 °F 21.0 °F 88% 29.26 in 0.8 mi SSW 4.6 mph - 0.01 in Snow Light Snow
11:42 PM 24.1 °F 19.7 °F 21.9 °F 91% 29.25 in 0.5 mi SSW 3.5 mph - 0.02 in Fog , Snow Snow
11:53 PM 24.1 °F 18.2 °F 21.9 °F 91% 29.27 in 0.8 mi South 4.6 mph - 0.03 in Snow Light Snow